Regional Weather Roundup
Issued by NWS Austin/San Antonio, TX

Home | Current Version | Previous Version | Text Only | Print | Product List | Glossary On
Versions: 1 2 3 4 5 6 7 8 9 10 11 12 13 14 15 16 17 18 19 20 21 22 23 24 25 26 27 28 29 30 31 32 33 34 35 36 37 38 39 40 41 42 43 44 45 46 47 48 49 50
000
ASUS44 KEWX 230210
RWREWX
SOUTH TEXAS REGIONAL WEATHER ROUNDUP
NATIONAL WEATHER SERVICE AUSTIN/SAN ANTONIO TX
800 PM CST THU FEB 22 2018

NOTE: "FAIR" INDICATED FEW OR NO CLOUDS BELOW 12,000 FEET WITH NO
SIGNIFICANT WEATHER AND/OR OBSTRUCTIONS TO VISIBILITY.

* - THESE STATIONS ARE NOT NWS OR FAA STATIONS...AND ARE NOT SUBJECT
    TO NWS AND FAA QUALITY CONTROL.

TXZ171-172-183>190-230300-
TEXAS HILL COUNTRY AND EDWARDS PLATEAU

CITY           SKY/WX    TMP DP  RH WIND       PRES   REMARKS
JUNCTION       NOT AVBL
*LLANO         CLOUDY    41  39  93 CALM      30.26S
BURNET         LGT RAIN  41  40  96 NE3       30.23R
*HORSESHOE BAY DRIZZLE   41  41 100 NW3       30.23R
*KERRVILLE     CLOUDY    49  46  90 N3        30.19R
*FREDERICKSBRG CLOUDY    43  41  95 CALM      30.20R
*ROCKSPRINGS   FOG       46  46 100 NE5       30.21R VSB 1   WCI  44
*BOERNE STAGE  CLOUDY    45  45 100 CALM      30.19R
*CASTROVILLE   CLOUDY    51  49  94 E7        30.20R
HONDO          CLOUDY    54  50  86 E8        30.18R
*UVALDE        CLOUDY    51  48  90 E5        30.18R
DEL RIO        CLOUDY    53  45  74 N3        30.16S
LAUGHLIN AFB   MOCLDY    54  48  81 CALM      30.16R
CARRIZO SPRGS  CLOUDY    54  50  87 E5        30.16R
*EAGLE PASS    CLOUDY    57  48  72 E5        30.16R
*FAITH RANCH   CLOUDY    55  50  82 NE6       30.16R
$$

TXZ173-191>194-202-209-217>225-228-230300-
CENTRAL AND SOUTH CENTRAL TEXAS

CITY           SKY/WX    TMP DP  RH WIND       PRES   REMARKS
GEORGETOWN     CLOUDY    40  40 100 N7        30.25R FOG     WCI  35
AUSTIN/BERGSTM DRIZZLE   44  44 100 N10       30.22R FOG     WCI  39
AUSTIN/MABRY   CLOUDY    43  42  97 N3        30.25R FOG
*AUSTIN/EXEC   NOT AVBL
*LAGO VISTA    FOG       41  41 100 NE6       30.21R VSB 1/2 WCI  37
SAN MARCOS     CLOUDY    44  43  96 N9        30.24R FOG     WCI  39
NEW BRAUNFELS  CLOUDY    45  44  97 NE9       30.20R FOG     WCI  40
RANDOLPH AFB   CLOUDY    46  45  93 NE8       30.19R FOG     WCI  42
PT SAN ANTONIO CLOUDY    50  48  95 NE6       30.17R WCI  47
SAN ANTONIO    CLOUDY    48  46  93 NE8       30.20R WCI  44
STINSON FIELD  CLOUDY    49  47  93 NE7       30.17R FOG     WCI  46
*LA GRANGE     CLOUDY    45  44  99 N3        30.21R FOG
*GIDDINGS      LGT RAIN  40  39  99 N6        30.23R WCI  35
*GONZALES      CLOUDY    45  45 100 N5        30.21R FOG     WCI  42
$$

TXZ163>164-176>182-195>201-210>213-226-227-235-230300-
SOUTHEAST TEXAS

CITY           SKY/WX    TMP DP  RH WIND       PRES   REMARKS
COLLEGE STN    CLOUDY    44  44 100 NW8       30.23R FOG     WCI  39
*BRYAN         CLOUDY    43  43 100 N8        30.24R FOG     WCI  38
*CALDWELL      CLOUDY    42  41  98 N7        30.24R FOG     WCI  37
*CROCKETT      CLOUDY    48  48 100 NW7       30.25R WCI  45
*BRENHAM       DRIZZLE   45  45 100 N7        30.23S WCI  41
HUNTSVILLE     FOG       51  50  96 NW5       30.22R VSB 1
CONROE         FOG       56  56 100 NW8       30.20R VSB 1
HOUSTON BUSH   LGT RAIN  67  66  97 NW6       30.18R FOG
HOUSTON HOBBY  CLOUDY    73  73 100 S10       30.17R FOG
*HOUSTON SW AP CLOUDY    67  66  99 CALM      30.18R FOG
PEARLAND       CLOUDY    73  72  96 S10       30.19R
HOUSTON HOOKS  CLOUDY    58  57  97 NW7       30.20R FOG
ELLINGTON FLD  CLOUDY    72  70  94 S8        30.19R
SUGAR LAND     LGT RAIN  61  58  90 NW6       30.18R
*HOUSTON EXEC  FOG       50  50 100 N8        30.21R VSB 1/2 WCI  47
*CLEVELAND MUN CLOUDY    72  69  91 S9        30.19R FOG
*WHARTON       FOG       54  53  96 N9        30.19R VSB 3/4
*COLUMBUS      CLOUDY    47  46  95 N6        30.22R FOG     WCI  44
*EAGLE LAKE    CLOUDY    50  50 100 N6        30.20R FOG     WCI  48
$$

TXZ214>216-236>238-230300-
THE UPPER TEXAS COAST

CITY           SKY/WX    TMP DP  RH WIND       PRES   REMARKS
*ORANGE        CLOUDY    73  72  98 S9        30.22R
PORT ARTHUR    CLOUDY    73  70  90 SE13      30.19R
GALVESTON      CLOUDY    72  70  93 SE14      30.19R
ANGLETON       CLOUDY    74  71  91 S15       30.17R
*BAY CITY      DRIZZLE   67  67 100 CALM      30.17R
PALACIOS       FOG       60  60 100 N7        30.16R VSB 1/2
$$

TXZ229>234-239>247-230300-
TEXAS COASTAL BEND AND RIO GRANDE PLAINS

CITY           SKY/WX    TMP DP  RH WIND       PRES   REMARKS
VICTORIA       CLOUDY    51  49  92 N7        30.19R FOG
*BEEVILLE      CLOUDY    48  48 100 N8        30.17R FOG     WCI  45
ROCKPORT       CLOUDY    56  55  97 N6        30.17R FOG
*PORT ARANSAS  NOT AVBL
*PORT LAVACA   FOG       55  53  95 N8        30.18R VSB 3/4
*INGLESIDE     CLOUDY    56  55  95 MISG      30.17R FOG
CORPUS CHRISTI DRIZZLE   54  54 100 N9        30.17R FOG
CORPUS NAS     DRIZZLE   57  57 100 N10       30.16R FOG
*ROBSTOWN      CLOUDY    53  52  99 N8        30.18R FOG
ALICE          CLOUDY    52  50  93 N7        30.17R FOG
KINGSVILLE NAS DRZL/FOG  54  53  97 N6        30.17R VSB 1/4
COTULLA        CLOUDY    52  49  89 E5        30.18R
LAREDO         CLOUDY    55  50  83 E7        30.17R
$$

TXZ248>255-230300-
DEEP SOUTH TEXAS

CITY           SKY/WX    TMP DP  RH WIND       PRES   REMARKS
BROWNSVILLE    CLOUDY    64  63  96 NE6       30.14R FOG
PORT ISABEL    CLOUDY    61  59  93 N7        30.14R FOG
*SOUTH PADRE   NOT AVBL
HARLINGEN      CLOUDY    61  61 100 NE7       30.14R FOG
*HEBBRONVILLE  CLOUDY    53  52  97 CALM      30.18R FOG
MCALLEN        CLOUDY    59  57  93 N9        30.16R
*WESLACO       CLOUDY    57  56  95 N6        30.15R FOG
FALFURRIAS     CLOUDY    55  53  94 CALM      30.16R
EDINBURG       CLOUDY    58  56  93 NW5       30.17R FOG
*ZAPATA        DRIZZLE   55  54  97 S3        30.18R
$$

TXZ213>215-236>238-242>244-246-247-251-254-255-230300-
CMAN STATIONS

STATION/POSITION TIME  TEMP    WIND        PRES    WAVE
                       AIR SEA DIR/SP/G            HT/PER
                 (UTC) (F)     (DEG/KT/KT) (MB)    (FT/S)
SABINE PASS      0148   69 71  140/ 10/ 12 1024.4
SEA RIM ST PARK  0200   69     140/  8/ 10 1023.1
NORTH JETTY/GLS  0142      65  130/ 13/ 14 1021.8
EAGLE POINT      0148   69 71  160/  9/ 10 1022.2
MORGANS POINT    0148   69 65  150/  6/  9 1022.0
PORT O`CONNOR    0136   59 63  360/  8/  9 1021.0
MALAQUITE BEACH  0136   86 62  340/  7/  9 1020.9
BAFFIN BAY       0136   57 66  350/  7/ 10 1021.2
PORT ISABEL      0136   61 66  360/  6/  8 1020.3
$$



USA.gov is the U.S. government's official web portal to all federal, state and local government web resources and services.